sat.trackr.live / text

‹ back to catalog

HJ-2B

NORAD 46479 · 2020-067B

PAYLOAD ACTIVE UNKNOWN

§ Identity

Operator
Country
PRC
Launch date
2020-09-27
Launch site
TAISC
Launch vehicle
Mass (kg)
RCS (m²)

External: N2YO · Heavens-Above · Gunter

§ Orbital elements

Epoch: 2026-09-14T22:13:49.861056Z

Period
97.52 min
Inclination
97.8838°
Eccentricity
0.0001025
Mean motion
14.76561876 rev/d
Perigee alt
639.5 km
Apogee alt
640.9 km
Semi-major
7,018.3 km
B*
8.6942e-5
RAAN
335.2396°
Arg perigee
61.7504°
Mean anomaly
298.3809°
Rev number
32,150

§ Raw data

HJ-2B1 46479U 20067B   26257.92627154  .00000557  00000+0  86942-4 0  99922 46479  97.8838 335.2396 0001025  61.7504 298.3809 14.76561876321508

JSON: /api/v1/satellites/46479 · /tle

For live sub-satellite position, see the globe view (requires WebGL).

§ Visibility from observer

Set your observer location to see the next 7 days of passes ≥ 10°. The values pass through the URL so the page stays shareable.

No JS? Fill the form by hand. The geolocation button needs JavaScript.

§ Radio — SatNOGS DB

ModeDescriptionDownlinkUplink
BPSK S-band telemetry 2.243 GHz

1 transmitter · refreshed weekly from db.satnogs.org